Content
SEND FEEDBACK

Daily
Averages
Monthly
Summary
United States of America

INARAJAN, GUAM


Home > North America > United States > Guam
Elevation: 280 feet     Latitude: 13 18N     Longitude: 144 44E

WEATHER
 
SELECT A DAY
Number of Records: 341,964;   Date Range: 1/1/95 - 7/26/14
 
SHARE

PRINT THIS DATA

[ ← Previous Day ]
WEATHER ALMANAC - MAY 8, 2013
[ Next Day → ]
[ °C ]   °F
Weather ElementAverageHighLow
Temperature80.9 °F85.3 °F (10:55 am)78.3 °F (3:55 am)
Dewpoint75.3 °F77 °F (2:12 am)74.3 °F (3:55 am)
Humidity83.5 %94 % (2:12 am)72 % (2:55 pm)
Barometer29.81 in29.86 in (9:55 pm)29.77 in (2:55 pm)
Wind Speed9.5 mph15 mph (9:55 am)
Weather ElementAverage
Visibility9.9 mi
Wind DirectionESE (96.2 °)

Weather ElementTotal
Precipitation0.05 in
Cooling Degree Days16.8 (Base 65)
Growing Degree Days31.8 (Base 50)
Averaged from 50 records on May 8, 2013
WEATHER CONDITIONS BREAKOUT
WIND DIRECTION BREAKOUT
WEATHER BY HOUR - MAY 8, 2013
[ °C ]   °F
Local TimeTemperatureDewpointHumidityBarometerVisibilityWind DirectionWind SpeedGust SpeedPrecipitationEventsConditions
12:42 AM80.6 °F75.2 °F84 %29.82 in10.0 miEast (100°)6.9 mphMostly Cloudy
12:50 AM80.6 °F75.2 °F84 %29.82 in10.0 miEast (100°)8.1 mphMostly Cloudy
12:55 AM79.9 °F75.7 °F87 %29.81 in10.0 miEast (100°)8.1 mphMostly Cloudy
1:00 AM80.6 °F75.2 °F84 %29.81 in10.0 miEast (100°)6.9 mphMostly Cloudy
1:03 AM78.8 °F75.2 °F89 %29.81 in10.0 miEast (100°)8.1 mphScattered Clouds
1:49 AM80.6 °F75.2 °F84 %29.80 in10.0 miESE (110°)9.2 mphMostly Cloudy
1:55 AM79.7 °F75.2 °F86 %29.80 in10.0 miEast (100°)6.9 mphMostly Cloudy
2:07 AM80.6 °F75.2 °F84 %29.80 in10.0 miEast (100°)9.2 mphMostly Cloudy
2:08 AM78.8 °F75.2 °F89 %29.80 in10.0 miESE (110°)9.2 mphMostly Cloudy
2:12 AM78.8 °F77.0 °F94 %29.80 in10.0 miESE (110°)8.1 mphMostly Cloudy
2:55 AM79.0 °F75.2 °F88 %29.79 in10.0 miESE (110°)6.9 mphPartly Cloudy
3:32 AM78.8 °F75.2 °F89 %29.78 in10.0 miEast (90°)10.4 mphMostly Cloudy
3:38 AM78.8 °F75.2 °F89 %29.78 in10.0 miEast (100°)9.2 mphScattered Clouds
3:55 AM78.3 °F74.3 °F88 %29.78 in10.0 miEast (100°)5.8 mphPartly Cloudy
4:11 AM78.8 °F75.2 °F89 %29.79 in10.0 miESE (110°)10.4 mphMostly Cloudy
4:14 AM78.8 °F75.2 °F89 %29.79 in10.0 miESE (110°)9.2 mphScattered Clouds
4:50 AM78.8 °F75.2 °F89 %29.79 in10.0 miEast (100°)10.4 mphMostly Cloudy
4:55 AM79.3 °F75.2 °F87 %29.79 in10.0 miEast (100°)10.4 mphMostly Cloudy
4:57 AM78.8 °F75.2 °F89 %29.79 in10.0 miESE (110°)11.5 mphScattered Clouds
5:17 AM78.8 °F75.2 °F89 %29.80 in7.0 miESE (110°)9.2 mphMostly Cloudy
5:41 AM78.8 °F75.2 °F89 %29.80 in10.0 miESE (110°)9.2 mphMostly Cloudy
5:55 AM78.8 °F75.2 °F89 %29.80 in7.0 miEast (100°)10.4 mphPartly Cloudy
6:55 AM80.4 °F76.1 °F87 %29.80 in10.0 miEast (100°)11.5 mphScattered Clouds
7:45 AM80.6 °F77.0 °F89 %29.82 in10.0 miEast (100°)9.2 mphMostly Cloudy
7:54 AM82.4 °F75.2 °F79 %29.82 in10.0 miEast (100°)12.7 mphScattered Clouds
7:55 AM82.0 °F75.7 °F81 %29.82 in10.0 miEast (100°)11.5 mphScattered Clouds
8:09 AM82.4 °F75.2 °F79 %29.83 in10.0 miEast (100°)9.2 mphMostly Cloudy
8:12 AM82.4 °F75.2 °F79 %29.83 in10.0 miESE (110°)12.7 mphScattered Clouds
8:47 AM84.2 °F75.2 °F74 %29.83 in10.0 miESE (110°)11.5 mphPartly Cloudy
8:55 AM84.0 °F75.2 °F75 %29.83 in10.0 miEast (100°)11.5 mphPartly Cloudy
8:56 AM84.2 °F75.2 °F74 %29.83 in10.0 miESE (110°)12.7 mphPartly Cloudy
9:55 AM84.6 °F75.4 °F74 %29.84 in10.0 miESE (120°)15.0 mph0.05 inClear
10:55 AM85.3 °F75.6 °F73 %29.83 in10.0 miESE (120°)12.7 mphClear
11:55 AM84.7 °F75.2 °F73 %29.83 in10.0 miESE (110°)9.2 mphPartly Cloudy
12:55 PM84.6 °F75.4 °F74 %29.81 in10.0 miEast (90°)6.9 mphScattered Clouds
1:55 PM85.1 °F75.6 °F73 %29.78 in10.0 miESE (110°)10.4 mphClear
2:55 PM84.4 °F74.7 °F72 %29.77 in10.0 miESE (110°)10.4 mphPartly Cloudy
3:55 PM83.8 °F74.7 °F74 %29.77 in10.0 miESE (110°)8.1 mphClear
4:55 PM82.6 °F74.5 °F76 %29.77 in10.0 miEast (90°)10.4 mphClear
5:55 PM81.5 °F75.0 °F81 %29.78 in10.0 miEast (90°)6.9 mphPartly Cloudy
6:55 PM80.4 °F75.2 °F84 %29.81 in10.0 miENE (70°)6.9 mphScattered Clouds
7:55 PM79.9 °F75.4 °F86 %29.83 in10.0 miENE (60°)8.1 mphPartly Cloudy
8:03 PM80.6 °F75.2 °F84 %29.83 in10.0 miENE (60°)8.1 mphMostly Cloudy
8:07 PM80.6 °F75.2 °F84 %29.83 in10.0 miENE (60°)8.1 mphScattered Clouds
8:23 PM80.6 °F75.2 °F84 %29.84 in10.0 miENE (60°)9.2 mphMostly Cloudy
8:29 PM80.6 °F75.2 °F84 %29.84 in10.0 miENE (60°)9.2 mphScattered Clouds
8:55 PM79.0 °F75.2 °F88 %29.85 in10.0 miENE (60°)9.2 mphClear
9:55 PM79.2 °F75.4 °F88 %29.86 in10.0 miENE (70°)9.2 mphPartly Cloudy
10:55 PM79.5 °F75.6 °F88 %29.86 in10.0 miENE (70°)8.1 mphPartly Cloudy
11:55 PM79.5 °F75.7 °F88 %29.84 in10.0 miEast (80°)10.4 mphScattered Clouds
Hourly data recorded from PGUA, located miles away from Inarajan, Guam







STORIES FROM OUR PARTNERS